Preview of NWS' New Version of Forecast
This preview is not operational and should not be used for support decisions.

Regional Weather Roundup (RWR)

Issued by National Weather Service (NWS)

                            
000
ASUS46 KSEW 200210
RWRWA 

WASHINGTON REGIONAL WEATHER ROUNDUP
NATIONAL WEATHER SERVICE SEATTLE WA
700 PM PDT MON AUG 19 2019

NOTE:"FAIR" INDICATES FEW OR NO CLOUDS BELOW 12,000 FEET WITH NO 
SIGNIFICANT WEATHER AND/OR OBSTRUCTIONS TO VISIBILITY.

WAZ507-509-555>559-200300-
SEATTLE, TACOMA, EVERETT, AND VICINITY
  
CITY           SKY/WX    TMP DP  RH WIND       PRES   REMARKS
EVERETT        SUNNY     68  52  56 N7        30.00F                  
BOEING FIELD   SUNNY     73  51  46 NW9       29.97F                  
RENTON         SUNNY     74  53  48 NW8       29.97F                  
SEATAC AIRPORT MOSUNNY   73  52  47 N8        29.99S                  
JBLM-MCCHORD   SUNNY     74  58  57 N7        29.97F                  
PUYALLUP       FAIR      75  52  43 CALM      29.98S                  
BREMERTON      SUNNY     71  55  56 N7        29.99S                  
JBLM-FT LEWIS  SUNNY     75  59  57 W7        29.97S                  
TACOMA NARROWS SUNNY     70  52  52 NE7       29.97F                  
$$
 
WAZ001-503-506-510-514-515-200300-
NORTH INTERIOR
  
CITY           SKY/WX    TMP DP  RH WIND       PRES   REMARKS
BELLINGHAM     SUNNY     69  50  50 S5        29.99F                  
FRIDAY HARBOR  SUNNY     66  49  54 W5        30.00F                  
PORT ANGELES   MOSUNNY   65  51  60 CALM      30.01F                  
EDIZ HOOK      FAIR      59  54  83 W3        30.01S                  
PORT TOWNSEND  FAIR      68  50  52 VRB5      29.98F                  
NAS WHIDBEY    MOSUNNY   66  50  56 NW3       30.03F                  
ARLINGTON      SUNNY     70  53  54 NW9       29.98F                  
BURLINGTON     SUNNY     72  52  49 NW8       29.99F                  
$$
 
WAZ020-022-039-040-504-511-512-200300-
SOUTHWEST INTERIOR
  
CITY           SKY/WX    TMP DP  RH WIND       PRES   REMARKS
SHELTON        SUNNY     75  55  49 N7        29.94F                  
OLYMPIA        SUNNY     76  51  41 NE8       29.96F                  
CHEHALIS       FAIR      75  55  50 NW5       29.96F                  
KELSO          SUNNY     75  59  57 NW7       29.95F                  
VANCOUVER      SUNNY     78  54  43 NW8       29.91F                  
SCAPPOOSE, OR  SUNNY     76  56  49 NW12      29.92F                  
PORTLAND, OR   MOSUNNY   79  54  41 NW12      29.91F                  
$$
 
WAZ021-516-517-200300-
WASHINGTON COAST
  
CITY           SKY/WX    TMP DP  RH WIND       PRES   REMARKS
FORKS          MOSUNNY   66  52  60 W6        30.00F                  
HOQUIAM        SUNNY     67  56  67 W9        29.99F                  
ASTORIA, OR    SUNNY     66  54  65 NW13      29.97F                  
$$
 
WAZ019-023-024-040-567>569-200300-
CASCADE MOUNTAINS AND COLUMBIA GORGE
  
CITY           SKY/WX    TMP DP  RH WIND       PRES   REMARKS
STAMPEDE PASS  SUNNY     61  51  70 VRB6      30.06F                  
TROUTDALE, OR  SUNNY     79  55  43 VRB5      29.90F                  
HOOD RIVER, OR CLEAR     79  48  34 CALM      29.87S                  
THE DALLES, OR SUNNY     83  52  34 NW12G20   29.83S                  
$$

WAZ026-027-041>044-520-521-200300-
EAST SLOPES
  
CITY           SKY/WX    TMP DP  RH WIND       PRES   REMARKS
OMAK           CLEAR     89  37  16 S8        29.82S                  
WENATCHEE      CLEAR     87  37  17 NW13      29.83S                  
ELLENSBURG     SUNNY     80  43  26 NW22      29.89S                  
YAKIMA         SUNNY     86  52  30 S6        29.84S                  
SUNNYSIDE ARPT CLEAR     85  61  44 CALM      29.82F                  
YAKIMA TC      NOT AVBL                                               
$$

WAZ028-034-035-200300-
COLUMBIA BASIN
  
CITY           SKY/WX    TMP DP  RH WIND       PRES   REMARKS
EPHRATA        CLEAR     87  39  18 S10       29.84S                  
MOSES LAKE     CLEAR     89  45  21 SE8       29.85S                  
PASCO          CLEAR     91  49  23 E6        29.82S                  
RICHLAND ARPT  CLEAR     90  52  27 E8        29.81                   
HERMISTON, OR  CLEAR     91  45  20 N3        29.82F                  
$$

WAZ036>038-200300-
NORTHEAST WASHINGTON
  
CITY           SKY/WX    TMP DP  RH WIND       PRES   REMARKS
SPOKANE GEIGER PTCLDY    83  41  22 SW7       29.92S                  
SPOKANE FELTS  CLEAR     85  39  19 W3        29.90S                  
FAIRCHILD AFB  CLEAR     82  38  21 SW6       29.93S                  
COEURDALENE,ID CLEAR     83  44  25 W7        29.93R                  
DEER PARK      CLEAR     83  40  21 S9        29.91S                  
$$

WAZ029>033-200300-
SOUTHEAST WASHINGTON
  
CITY           SKY/WX    TMP DP  RH WIND       PRES   REMARKS
PULLMAN        CLEAR     81  42  25 NW3       29.95S                  
LEWISTON, ID   CLEAR     88  42  20 W10       29.86S                  
WALLA WALLA    CLEAR     88  43  20 SW6       29.86S                  
PENDLETON, OR  CLEAR     86  44  23 NW6       29.87F                  
$$